Regional Weather Roundup
Issued by NWS Columbia, SC

Home | Current Version | Previous Version | Text Only | Print | Product List | Glossary On
Versions: 1 2 3 4 5 6 7 8 9 10 11 12 13 14 15 16 17 18 19 20 21 22 23 24 25 26 27 28 29 30 31 32 33 34 35 36 37 38 39 40 41 42 43 44 45 46 47 48 49 50
000
ASUS42 KCAE 301210
RWRCAE
REGIONAL WEATHER ROUNDUP
NATIONAL WEATHER SERVICE COLUMBIA SC
800 AM EDT TUE SEP 30 2014

NOTE: "FAIR" INDICATES FEW OR NO CLOUDS BELOW 12,000 FEET WITH NO
SIGNIFICANT WEATHER AND/OR OBSTRUCTIONS TO VISIBILITY.

NOT ALL STATIONS ARE QUALITY CONTROLLED BY THE NATIONAL
WEATHER SERVICE. USE DATA WITH CAUTION...ESPECIALLY
DEWPOINT OBSERVATIONS.

SCZ001>056-GAZ040-063>065-077-301300-
...UPSTATE SOUTH CAROLINA...

CITY           SKY/WX    TMP DP  RH WIND       PRES   REMARKS
ANDERSON       FOG       61  61 100 CALM      29.97R VSB 1/4
6HR MIN TEMP:  60; 6HR MAX TEMP:  63;

LIBERTY        FOG       55  55 100 CALM      29.97R VSB<1/4
6HR MIN TEMP:  55; 6HR MAX TEMP:  73;

SPARTANBURG    FAIR      59  59 100 CALM      29.97R FOG
CLEMSON        FOG       63  59  87 CALM      29.98R VSB 1/4
6HR MIN TEMP:  62; 6HR MAX TEMP:  67;

GREENVILLE     CLEAR     59  57  93 CALM      29.98R
6HR MIN TEMP:  58; 6HR MAX TEMP:  64;

GREENWOOD      FOG       63  61  93 N3        29.97R VSB<1/4
6HR MIN TEMP:  62; 6HR MAX TEMP:  64;

GREER          CLEAR     58  58 100 CALM      29.95S
6HR MIN TEMP:  57; 6HR MAX TEMP:  62;

ROCK HILL      FOG       57  57 100 CALM      29.96R VSB 1/4
6HR MIN TEMP:  57; 6HR MAX TEMP:  65;

CHESTER        FAIR      63  61  94 CALM      30.00S
LAURENS        FOG       59 N/A N/A CALM      29.97R VSB<1/4


...CENTRAL SOUTH CAROLINA...

CITY           SKY/WX    TMP DP  RH WIND       PRES   REMARKS
COLUMBIA APT   PTCLDY    65  61  87 CALM      29.93R
6HR MIN TEMP:  63; 6HR MAX TEMP:  67;

COLUMBIA OWENS CLEAR     62  60  93 CALM      29.95R
6HR MIN TEMP:  62; 6HR MAX TEMP:  67;

DARLINGTON     CLOUDY    63  57  82 CALM      29.94R VSB<1/4
6HR MIN TEMP:  59; 6HR MAX TEMP:  64; 6HR PCP:  0.01;

FLORENCE       MOCLDY    63  61  93 N6        29.93R FOG
6HR MIN TEMP:  60; 6HR MAX TEMP:  62;

MCENTIRE ANGB  CLEAR     62  61  99 CALM      29.94R
6HR MIN TEMP:  59; 6HR MAX TEMP:  62;

ORANGEBURG     CLEAR     63  59  87 N3        29.94R
6HR MIN TEMP:  62; 6HR MAX TEMP:  64;

SUMTER SHAW    CLEAR     61  58  88 NE2       29.92R
6HR MIN TEMP:  59; 6HR MAX TEMP:  62;

NEWBERRY       FOG       63  63 100 CALM      29.98R VSB<1/4
AIKEN          FOG       63  63 100 N5        29.98R VSB 1/4
BARNWELL       FAIR      63  63 100 N5        29.94R
MANNING        FAIR      61 N/A N/A CALM      29.93R
CAMDEN         FAIR      59  59 100 CALM      29.94S FOG
LANCASTER      RAIN      59  59 100 N3        29.95R VSB<1/4
WINNSBORO        N/A     59  59 100 CALM      29.94R FOG


...EASTERN AND COASTAL SOUTH CAROLINA...

CITY           SKY/WX    TMP DP  RH WIND       PRES   REMARKS
MYRTLE BEACH   PTCLDY    64  61  88 N9        29.90R
N MYRTLE BCH   PTCLDY    64  62  93 N8        29.89R FOG
6HR MIN TEMP:  63; 6HR MAX TEMP:  65;

CONWAY         FAIR      61  61 100 N3        29.91R FOG
MARION         FAIR      61  61 100 N3        29.92R FOG
HARTSVILLE     FAIR      63  63 100 N5        29.94R
FLORENCE       MOCLDY    63  61  93 N6        29.93R FOG
6HR MIN TEMP:  60; 6HR MAX TEMP:  62;

DARLINGTON     CLOUDY    63  57  82 CALM      29.94R VSB<1/4
6HR MIN TEMP:  59; 6HR MAX TEMP:  64; 6HR PCP:  0.01;

CHARLESTON APT MOCLDY    66  62  87 N9        29.89R
6HR MIN TEMP:  65; 6HR MAX TEMP:  66;

MOUNT PLEASANT FAIR      64  63  94 N5        29.89R FOG
WALTERBORO     CLOUDY    63 N/A N/A N7        29.93R
BEAUFORT       MOCLDY    66  63  90 N5        29.91R
6HR MIN TEMP:  65; 6HR MAX TEMP:  68;



...EASTERN GEORGIA...

CITY           SKY/WX    TMP DP  RH WIND       PRES   REMARKS
AUGUSTA BUSH F MOCLDY    63  61  93 CALM      29.94R
6HR MIN TEMP:  62; 6HR MAX TEMP:  68;

AUGUSTA DANIEL CLEAR     65  63  93 N6        29.95R
6HR MIN TEMP:  64; 6HR MAX TEMP:  71;

THOMSON          N/A     66  66 100 CALM      29.99R
6HR MIN TEMP:  65; 6HR MAX TEMP:  69;

WASHINGTON     FOG       64 N/A N/A CALM      29.96R VSB 3/4
CLAXTON          N/A     68  68 100 N6        29.91R
SYLVANIA       CLOUDY    67  66  97 NE6       29.93R FOG
6HR MIN TEMP:  67; 6HR MAX TEMP:  69;

STATESBORO     CLOUDY    65  65 100 N8        29.92R
6HR MIN TEMP:  65; 6HR MAX TEMP:  66;

SAVANNAH       CLOUDY    68  64  87 N8        29.90R
6HR MIN TEMP:  68; 6HR MAX TEMP:  69;



...SOUTHERN NORTH CAROLINA...

CITY           SKY/WX    TMP DP  RH WIND       PRES   REMARKS
CHARLOTTE      FOG       60  59  96 NW3       29.96R VSB 1/2
6HR MIN TEMP:  59; 6HR MAX TEMP:  63;

MONROE         PTCLDY    58  57  97 W3        29.94S FOG
6HR MIN TEMP:  58; 6HR MAX TEMP:  63;

WADESBORO      FOG       62  61  96 NW3       29.93S VSB<1/4
6HR MIN TEMP:  62; 6HR MAX TEMP:  64;

ROCKINGHAM     FOG       60  60  99 CALM      29.93S VSB<1/4
6HR MIN TEMP:  59; 6HR MAX TEMP:  64;

RUTHERFORDTON  CLEAR     58  58 100 NW3       29.98R
6HR MIN TEMP:  58; 6HR MAX TEMP:  63;

ASHEVILLE      MOCLDY    59  57  93 N6        30.03R
6HR MIN TEMP:  58; 6HR MAX TEMP:  61;


$$


USA.gov is the U.S. government's official web portal to all federal, state and local government web resources and services.